Weather History for Evanston, WY

Change the Weather History Date:

Saturday, November 16, 2013

  Actual Average Record
Temperature  
Mean Temperature 26 °F 29 °F  
Max Temperature 32 °F 38 °F 57 °F (1999)
Min Temperature 19 °F 21 °F 5 °F (2000)
Degree Days  
Heating Degree Days 39 36  
Month to date heating degree days 457 512  
Since 1 July heating degree days 1439 1565  
Cooling Degree Days 0 0  
Month to date cooling degree days 0 0  
Year to date cooling degree days 348 162  
Moisture  
Dew Point 25 °F    
Average Humidity 88    
Maximum Humidity 100    
Minimum Humidity 75    
Precipitation  
Precipitation T in 0.03 in 0.14 in (2003)
Month to date precipitation 0.11 0.66  
Year to date precipitation 5.13 11.17  
Sea Level Pressure  
Sea Level Pressure 29.58 in    
Wind  
Wind Speed 18 mph (WSW)    
Max Wind Speed 32 mph    
Max Gust Speed 40 mph    
Visibility 3 miles    
Events Fog , Snow    
T = Trace of Precipitation, MM = Missing Value Source: NWS Daily Summary

Daily Weather History Graph

Daily Weather History Graph

Search for Another Location

Airport:

Trip Planner

Search our weather history database for the weather conditions in past years. The results will help you decide how hot, cold, wet, or windy it might be!

Date:

Astronomy

Nov. 16, 2013 Rise Set
Actual Time 7:13 AM MST 5:03 PM MST
Civil Twilight 6:44 AM MST 5:33 PM MST
Nautical Twilight 6:10 AM MST 6:06 PM MST
Astronomical Twilight 5:37 AM MST 6:39 PM MST
Moon 4:41 PM MST (11/16) 6:13 AM MST (11/16)
Length of Visible Light 10h 49m
Length of Day
9h 49m
Waxing Gibbous, 99% of the Moon is Illuminated
Nov 16
Waxing Gibbous
Nov 17
Full
Nov 25
Last Quarter
Dec 2
New
Dec 9
First Quarter

Hourly Weather History & Observations

Time (MST) Temp. Windchill Dew Point Humidity Pressure Visibility Wind Dir Wind Speed Gust Speed Precip Events Conditions
12:27 AM 21.2 °F 9.5 °F 19.4 °F 93% 29.62 in 10.0 mi SW 11.5 mph - N/A   Scattered Clouds
12:53 AM 21.0 °F 9.9 °F 18.0 °F 88% 29.65 in 10.0 mi SW 10.4 mph - N/A   Partly Cloudy
1:53 AM 21.9 °F 11.0 °F 19.0 °F 89% 29.62 in 10.0 mi SSW 10.4 mph - N/A   Clear
2:53 AM 21.9 °F 11.0 °F 19.9 °F 92% 29.59 in 10.0 mi SSW 10.4 mph - N/A   Overcast
3:53 AM 23.0 °F 10.6 °F 19.9 °F 88% 29.56 in 10.0 mi SW 13.8 mph - N/A   Overcast
4:53 AM 23.0 °F 11.7 °F 19.9 °F 88% 29.55 in 10.0 mi SSW 11.5 mph - N/A   Overcast
5:53 AM 24.1 °F 11.5 °F 19.9 °F 84% 29.53 in 10.0 mi SW 15.0 mph - N/A   Overcast
6:53 AM 25.0 °F 11.3 °F 19.9 °F 81% 29.56 in 10.0 mi SW 18.4 mph - N/A   Overcast
7:53 AM 25.0 °F 12.6 °F 21.0 °F 85% 29.55 in 10.0 mi SSW 15.0 mph - N/A   Mostly Cloudy
8:45 AM 26.6 °F 14.7 °F 24.8 °F 93% 29.52 in 2.5 mi SW 15.0 mph - 0.00 in Snow Light Snow
8:53 AM 26.1 °F 13.1 °F 24.1 °F 92% 29.56 in 2.0 mi SW 17.3 mph - 0.00 in Snow Light Snow
8:59 AM 26.6 °F 13.4 °F 24.8 °F 93% 29.52 in 3.0 mi SW 18.4 mph 24.2 mph 0.00 in Snow Light Snow
9:46 AM 26.6 °F 14.3 °F 24.8 °F 93% 29.53 in 2.0 mi SW 16.1 mph - 0.00 in Snow Light Snow
9:53 AM 27.0 °F 12.5 °F 25.0 °F 92% 29.58 in 1.8 mi SW 23.0 mph 27.6 mph 0.00 in Snow Light Snow
10:05 AM 28.4 °F 15.8 °F 24.8 °F 86% 29.53 in 1.8 mi SW 18.4 mph 28.8 mph 0.00 in Snow Light Snow
10:15 AM 28.4 °F 14.1 °F 24.8 °F 86% 29.54 in 2.0 mi SW 24.2 mph - 0.00 in Snow Light Snow
10:20 AM 28.4 °F 15.4 °F 26.6 °F 93% 29.54 in 1.5 mi SW 19.6 mph - 0.00 in Snow Light Snow
10:53 AM 28.9 °F 15.8 °F 27.0 °F 92% 29.58 in 2.0 mi SW 20.7 mph - 0.00 in Snow Light Snow
11:00 AM 30.2 °F 17.4 °F 26.6 °F 86% 29.54 in 4.0 mi SW 20.7 mph - 0.00 in Snow Light Snow
11:12 AM 30.2 °F 16.2 °F 26.6 °F 86% 29.54 in 2.5 mi SW 25.3 mph 32.2 mph 0.00 in Snow Light Snow
11:21 AM 30.2 °F 16.2 °F 26.6 °F 86% 29.54 in 1.5 mi SW 25.3 mph 32.2 mph 0.00 in Snow Light Snow
11:29 AM 30.2 °F 16.2 °F 26.6 °F 86% 29.54 in 1.8 mi WSW 25.3 mph 32.2 mph 0.00 in Snow Light Snow
11:35 AM 30.2 °F 16.5 °F 26.6 °F 86% 29.54 in 3.0 mi WSW 24.2 mph 32.2 mph 0.00 in Snow Light Snow
11:46 AM 30.2 °F 16.8 °F 26.6 °F 86% 29.54 in 4.0 mi SW 23.0 mph 31.1 mph 0.00 in Snow Light Snow
11:53 AM 30.0 °F 16.6 °F 27.0 °F 88% 29.57 in 3.0 mi SW 23.0 mph 29.9 mph 0.00 in Snow Light Snow
12:02 PM 28.4 °F 15.1 °F 26.6 °F 93% 29.53 in 1.8 mi SW 20.7 mph 29.9 mph 0.00 in Snow Light Snow
12:07 PM 28.4 °F 15.8 °F 26.6 °F 93% 29.53 in 1.2 mi SW 18.4 mph 26.5 mph 0.00 in Snow Light Snow
12:27 PM 30.2 °F 16.8 °F 26.6 °F 86% 29.52 in 1.8 mi SW 23.0 mph - 0.00 in Snow Light Snow
12:35 PM 30.2 °F 17.1 °F 26.6 °F 86% 29.52 in 3.0 mi SW 21.9 mph 32.2 mph 0.00 in Snow Light Snow
12:51 PM 30.2 °F 16.8 °F 26.6 °F 86% 29.52 in 10.0 mi SW 23.0 mph 27.6 mph 0.00 in   Overcast
12:53 PM 32.0 °F 19.5 °F 26.1 °F 79% 29.54 in 10.0 mi WSW 21.9 mph 27.6 mph 0.00 in   Overcast
1:15 PM 30.2 °F 17.4 °F 26.6 °F 86% 29.51 in 1.8 mi SW 20.7 mph 26.5 mph 0.00 in Snow Light Snow
1:18 PM 30.2 °F 18.1 °F 26.6 °F 86% 29.51 in 1.2 mi WSW 18.4 mph 26.5 mph 0.00 in Snow Light Snow
1:26 PM 30.2 °F 17.8 °F 26.6 °F 86% 29.51 in 1.0 mi SW 19.6 mph 24.2 mph 0.00 in Snow Light Snow
1:42 PM 28.4 °F 15.1 °F 26.6 °F 93% 29.51 in 1.0 mi SW 20.7 mph 26.5 mph 0.00 in Snow Light Snow
1:53 PM 28.9 °F 16.9 °F 28.0 °F 96% 29.54 in 1.5 mi SW 17.3 mph - 0.00 in Snow Light Snow
2:46 PM 28.4 °F 14.7 °F 28.4 °F 100% 29.50 in 1.5 mi SW 21.9 mph 25.3 mph 0.00 in Snow Light Snow
2:53 PM 28.9 °F 15.4 °F 28.0 °F 96% 29.54 in 2.0 mi SW 21.9 mph - 0.00 in Snow Light Snow
3:00 PM 28.4 °F 14.7 °F 28.4 °F 100% 29.50 in 1.5 mi SW 21.9 mph 28.8 mph 0.00 in Snow Light Snow
3:14 PM 28.4 °F 14.7 °F 26.6 °F 93% 29.51 in 2.0 mi SW 21.9 mph 28.8 mph 0.00 in Snow Light Snow
3:23 PM 28.4 °F 15.1 °F 28.4 °F 100% 29.51 in 1.5 mi SW 20.7 mph - 0.00 in Snow Light Snow
3:30 PM 28.4 °F 14.7 °F 28.4 °F 100% 29.52 in 2.0 mi SW 21.9 mph - 0.00 in Snow Light Snow
3:53 PM 28.9 °F 15.4 °F 27.0 °F 92% 29.56 in 2.5 mi WSW 21.9 mph 27.6 mph 0.00 in Snow Light Snow
3:57 PM 28.4 °F 15.4 °F 26.6 °F 93% 29.53 in 3.0 mi WSW 19.6 mph 27.6 mph 0.00 in Snow Light Snow
4:11 PM 28.4 °F 15.1 °F 26.6 °F 93% 29.52 in 2.5 mi SW 20.7 mph 28.8 mph 0.00 in Snow Light Snow
4:15 PM 28.4 °F 15.1 °F 26.6 °F 93% 29.52 in 1.5 mi WSW 20.7 mph 28.8 mph 0.00 in Snow Light Snow
4:19 PM 28.4 °F 15.8 °F 26.6 °F 93% 29.52 in 1.0 mi SW 18.4 mph - 0.00 in Snow Light Snow
4:22 PM 28.4 °F 15.1 °F 26.6 °F 93% 29.52 in 0.8 mi WSW 20.7 mph 29.9 mph 0.00 in Snow Light Snow
4:44 PM 26.6 °F 14.7 °F 26.6 °F 100% 29.52 in 1.0 mi WSW 15.0 mph - 0.00 in Snow Light Snow
4:49 PM 26.6 °F 14.7 °F 24.8 °F 93% 29.53 in 3.0 mi WSW 15.0 mph - 0.00 in Snow Light Snow
4:53 PM 27.0 °F 15.2 °F 25.0 °F 92% 29.57 in 5.0 mi WSW 15.0 mph - 0.00 in Snow Light Snow
5:03 PM 26.6 °F 13.8 °F 24.8 °F 93% 29.53 in 9.0 mi WSW 17.3 mph 24.2 mph 0.00 in Snow Light Snow
5:12 PM 28.4 °F 15.4 °F 24.8 °F 86% 29.54 in 2.5 mi WSW 19.6 mph 28.8 mph 0.00 in Snow Light Snow
5:15 PM 28.4 °F 15.1 °F 24.8 °F 86% 29.54 in 1.5 mi WSW 20.7 mph 28.8 mph 0.00 in Snow Light Snow
5:28 PM 26.6 °F 12.4 °F 26.6 °F 100% 29.55 in 2.0 mi WSW 21.9 mph 27.6 mph 0.00 in Snow Light Snow
5:34 PM 26.6 °F 12.4 °F 26.6 °F 100% 29.55 in 1.8 mi SW 21.9 mph 27.6 mph 0.00 in Snow Light Snow
5:44 PM 26.6 °F 13.4 °F 26.6 °F 100% 29.56 in 3.0 mi WSW 18.4 mph 27.6 mph 0.00 in Snow Light Snow
5:53 PM 27.0 °F 13.9 °F 25.0 °F 92% 29.60 in 9.0 mi WSW 18.4 mph 28.8 mph 0.00 in Snow Light Snow
6:53 PM 28.0 °F 14.6 °F 24.1 °F 85% 29.57 in 10.0 mi SSW 20.7 mph 27.6 mph 0.00 in Snow Light Snow
7:53 PM 30.0 °F 15.2 °F 21.0 °F 69% 29.60 in 10.0 mi WSW 28.8 mph 35.7 mph 0.00 in   Overcast
8:12 PM 28.4 °F 13.0 °F 23.0 °F 80% 29.60 in 2.5 mi West 28.8 mph 40.3 mph 0.00 in Snow Light Snow
8:20 PM 28.4 °F 15.1 °F 24.8 °F 86% 29.60 in 1.0 mi West 20.7 mph 31.1 mph 0.00 in Snow Light Snow
8:29 PM 28.4 °F 15.1 °F 24.8 °F 86% 29.61 in 0.8 mi West 20.7 mph - 0.00 in Snow Light Snow
8:38 PM 26.6 °F 12.7 °F 26.6 °F 100% 29.61 in 0.5 mi West 20.7 mph 28.8 mph 0.00 in Fog , Snow Snow
8:53 PM 27.0 °F 13.9 °F 27.0 °F 100% 29.65 in 0.5 mi West 18.4 mph - 0.00 in Fog , Snow Snow
9:03 PM 26.6 °F 14.7 °F 26.6 °F 100% 29.62 in 1.2 mi WSW 15.0 mph - 0.00 in Snow Light Snow
9:09 PM 26.6 °F 14.7 °F 26.6 °F 100% 29.63 in 1.8 mi WSW 15.0 mph - 0.00 in Snow Light Snow
9:18 PM 28.4 °F 17.0 °F 26.6 °F 93% 29.64 in 0.8 mi West 15.0 mph - 0.00 in Snow Light Snow
9:33 PM 28.4 °F 17.0 °F 26.6 °F 93% 29.64 in 1.2 mi WNW 15.0 mph 25.3 mph 0.00 in Snow Light Snow
9:37 PM 26.6 °F 13.4 °F 26.6 °F 100% 29.64 in 1.8 mi WNW 18.4 mph 26.5 mph 0.00 in Snow Light Snow
9:42 PM 26.6 °F 13.4 °F 24.8 °F 93% 29.65 in 3.0 mi West 18.4 mph 26.5 mph 0.00 in Snow Light Snow
9:53 PM 27.0 °F 14.3 °F 25.0 °F 92% 29.69 in 6.0 mi West 17.3 mph - 0.00 in Snow Light Snow
10:07 PM 26.6 °F 14.3 °F 24.8 °F 93% 29.67 in 2.0 mi West 16.1 mph - 0.00 in Snow Light Snow
10:09 PM 26.6 °F 16.2 °F 24.8 °F 93% 29.67 in 1.8 mi WNW 11.5 mph - 0.00 in Snow Light Snow
10:12 PM 26.6 °F 15.7 °F 24.8 °F 93% 29.67 in 1.5 mi West 12.7 mph - 0.00 in Snow Light Snow
10:24 PM 26.6 °F 15.7 °F 24.8 °F 93% 29.68 in 1.0 mi WNW 12.7 mph - 0.00 in Snow Light Snow
10:31 PM 26.6 °F 14.7 °F 24.8 °F 93% 29.68 in 0.8 mi WNW 15.0 mph - 0.00 in Snow Light Snow
10:43 PM 26.6 °F 14.3 °F 24.8 °F 93% 29.69 in 1.0 mi West 16.1 mph - 0.00 in Snow Light Snow
10:53 PM 26.1 °F 13.1 °F 25.0 °F 96% 29.72 in 0.8 mi West 17.3 mph - 0.00 in Snow Light Snow
11:08 PM 26.6 °F 14.3 °F 24.8 °F 93% 29.71 in 1.0 mi West 16.1 mph - 0.00 in Snow Light Snow
11:13 PM 26.6 °F 13.1 °F 24.8 °F 93% 29.70 in 2.0 mi West 19.6 mph - 0.00 in Snow Light Snow
11:24 PM 26.6 °F 13.1 °F 23.0 °F 86% 29.71 in 4.0 mi West 19.6 mph - 0.00 in Snow Light Snow
11:53 PM 26.1 °F 13.1 °F 21.0 °F 81% 29.75 in 6.0 mi West 17.3 mph - 0.00 in Snow Light Snow